Home   Weather   Surendranagar   Past weeks
Flag for India

Past Weather in Surendranagar, Gujarat, India — Yesterday and Last 2 Weeks

Now
64 °F

Clear.


Feels Like: 64 °F
Forecast: 79 / 53 °F
Wind: 3 mph from West

Location: Ahmadabad Airport

Current Time: Jan 29, 2020 at 12:55:26 am

Latest Report: Jan 29, 2020 at 12:30 am


Visibility: 2 mi

Pressure: 29.98 "Hg

Humidity: 46%

Dew Point: 43 °F

Location of SurendranagarLocation

Past Weather in Surendranagar — Graph

°F

Surendranagar Temperature Yesterday

Maximum temperature yesterday: 77 °F (at 1:00 pm)
Minimum temperature yesterday: 64 °F (at 7:00 am)
Average temperature yesterday: 70 °F

High & Low Weather Summary for the Past Weeks

 TemperatureHumidityPressure
High86 °F (Jan 26, 3:30 pm)94% (Jan 17, 6:30 am)30.15 "Hg (Jan 17, 6:30 am)
Low48 °F (Jan 15, 7:30 am)23% (Jan 26, 1:30 pm)29.80 "Hg (Jan 27, 3:30 pm)
Average65 °F56%29.99 "Hg
* Reported Jan 13 11:30 pm — Jan 29 12:00 am, Surendranagar. Weather by CustomWeather, © 2020

Note: Actual official high and low records may vary slightly from our data, if they occured in-between our weather recording intervals... More about our weather records

Surendranagar Weather History for the Previous 24 Hours

Scroll right to see more
 ConditionsComfort  
Time TempWeatherWind HumidityBarometerVisibility
12:00 am
Wed, Jan 29
64 °FClear.5 mph46%29.95 "Hg2 mi
11:30 pm
Tue, Jan 28
64 °FClear.3 mph46%29.95 "Hg2 mi
11:00 pm66 °FClear.6 mph40%29.95 "Hg2 mi
10:30 pm66 °FClear.3 mph43%29.95 "Hg2 mi
10:00 pm68 °FClear.6 mph40%29.95 "Hg2 mi
9:30 pm68 °FClear.7 mph38%29.95 "Hg2 mi
9:00 pm68 °FPassing clouds.9 mph38%29.95 "Hg2 mi
8:30 pm70 °FPassing clouds.6 mph35%29.95 "Hg2 mi
8:00 pm70 °FPassing clouds.7 mph35%29.92 "Hg2 mi
7:30 pm70 °FPassing clouds.7 mph33%29.92 "Hg2 mi
7:00 pm72 °FPassing clouds.8 mph29%29.89 "Hg2 mi
6:30 pm73 °FPassing clouds.8 mph27%29.89 "Hg3 mi
6:00 pm75 °FPassing clouds.8 mph25%29.86 "Hg3 mi
5:30 pm75 °FPassing clouds.8 mph27%29.86 "Hg3 mi
5:00 pm77 °FScattered clouds.13 mph28%29.86 "Hg3 mi
4:30 pm77 °FScattered clouds.8 mph30%29.86 "Hg3 mi
4:00 pm77 °FScattered clouds.13 mph34%29.86 "Hg3 mi
3:30 pm77 °FScattered clouds.12 mph34%29.86 "Hg3 mi
3:00 pm75 °FScattered clouds.12 mph34%29.86 "Hg3 mi
2:30 pm75 °FScattered clouds.12 mph36%29.86 "Hg3 mi
2:00 pm77 °FScattered clouds.10 mph39%29.89 "Hg3 mi
1:30 pm75 °FScattered clouds.12 mph44%29.89 "Hg4 mi
1:00 pm77 °FScattered clouds.12 mph42%29.92 "Hg4 mi
12:30 pm73 °FPartly sunny.12 mph47%29.92 "Hg4 mi
12:00 pm73 °FPartly sunny.7 mph53%29.92 "Hg4 mi
11:30 am72 °FScattered clouds.9 mph53%29.95 "Hg4 mi
11:00 am72 °FScattered clouds.7 mph53%29.95 "Hg4 mi
10:30 am72 °FScattered clouds.6 mph53%29.95 "Hg4 mi
10:00 am70 °FPassing clouds.7 mph53%29.95 "Hg3 mi
9:30 am68 °FPassing clouds.6 mph56%29.95 "Hg2 mi
9:00 am66 °FScattered clouds.6 mph64%29.92 "Hg2 mi
8:30 am64 °FScattered clouds.5 mph68%29.92 "Hg2 mi
8:00 am64 °FScattered clouds.5 mph68%29.89 "Hg2 mi
7:30 am64 °FPassing clouds.5 mph68%29.89 "Hg1 mi
7:00 am64 °FPassing clouds.3 mph73%29.86 "Hg1 mi
6:30 am66 °FPassing clouds.3 mph68%29.86 "Hg2 mi
6:00 am66 °FPassing clouds.5 mph68%29.83 "Hg2 mi
5:30 am66 °FPassing clouds.5 mph68%29.83 "Hg2 mi
5:00 am66 °FPassing clouds.7 mph68%29.83 "Hg2 mi
4:30 am66 °FPassing clouds.6 mph68%29.83 "Hg2 mi
4:00 am66 °FPassing clouds.5 mph68%29.83 "Hg2 mi
3:30 am66 °FPassing clouds.7 mph68%29.83 "Hg2 mi
3:00 am68 °FPassing clouds.5 mph64%29.83 "Hg2 mi
2:30 am68 °FPassing clouds.5 mph69%29.83 "Hg2 mi
2:00 am68 °FPassing clouds.5 mph69%29.86 "Hg2 mi
1:30 am68 °FPassing clouds.6 mph64%29.86 "Hg2 mi
1:00 am68 °FPassing clouds.5 mph64%29.86 "Hg2 mi
12:30 am70 °FPassing clouds.3 mph60%29.86 "Hg2 mi
12:00 am70 °FPassing clouds.6 mph60%29.86 "Hg2 mi
Weather by CustomWeather, © 2020

See weather overview

Advertising